User: anonymous
Location: Caltech
(34.1382°N, 118.1253°W)
Time: 03:37:58
(UTC-07:00)
Language:

Cosmos 44 Rocket - Orbit

View from above orbital plane
View from above orbital plane
View from above satellite
View from above satellite

Ground track
Ground track

The orbit data is extracted from the following two-line orbital elements,

1 00877U 64053B   14204.38331297 -.00000043  00000-0  16161-4 0  6654
2 00877 065.0794 148.2312 0064801 181.7554 178.3327 14.58861415646882
Epoch (UTC): 23 July 2014 09:11:58
Eccentricity: 0.0064801
inclination: 65.0794°
perigee height: 651 km
apogee height: 743 km
right ascension of ascending node: 148.2312°
argument of perigee: 181.7554°
revolutions per day: 14.58861415
mean anomaly at epoch: 178.3327°
orbit number at epoch: 64688

The dashed part of the orbit path shows where the satellite is in the earth's shadow,  

DLR